Вернуться в каталог

STARLINK-3566

АктивенСвязьVLEO
NORAD 51880·PAYLOAD·🇺🇸 United States

Запущен Mar 3, 2022 с Cape Canaveral Space Force Station

Loading…

Ближайшие Пролёты (ближайшие 24 часа)

TLE

СвежийSource: CelesTrak SupGP

Эпоха: Sep 14, 2026, 21:49 UTC

1 51880C 22022AE  26257.90951389  .00045570  00000+0  17955-2 0  2572
2 51880  53.1613 232.5156 0003947  39.9536 256.5707 15.25035310    13

Отслеживайте STARLINK-3566 в реальном времени с AllMySat

Download on the App Store